Weather History for Duluth Sky Harbor, MN

Change the Weather History Date:

Saturday, June 14, 2014

  Actual Average Record
Temperature  
Mean Temperature 46 °F -  
Max Temperature 51 °F 66 °F 90 °F (1952)
Min Temperature 42 °F 48 °F 28 °F (1958)
Degree Days  
Heating Degree Days 18    
Moisture  
Dew Point 41 °F    
Average Humidity 89    
Maximum Humidity 100    
Minimum Humidity 76    
Precipitation  
Precipitation 0.00 in - - ()
Sea Level Pressure  
Sea Level Pressure 29.96 in    
Wind  
Wind Speed 15 mph (ENE)    
Max Wind Speed 28 mph    
Max Gust Speed 33 mph    
Visibility 10 miles    
Events Rain , Thunderstorm    
Averages and records for this station are not official NWS values.
T = Trace of Precipitation, MM = Missing Value Source: NWS Daily Summary

Daily Weather History Graph

Daily Weather History Graph

Search for Another Location

Airport:

Trip Planner

Search our weather history database for the weather conditions in past years. The results will help you decide how hot, cold, wet, or windy it might be!

Date:

Astronomy

Jun. 14, 2014 Rise Set
Actual Time 5:13 AM CDT 9:03 PM CDT
Civil Twilight 4:34 AM CDT 9:42 PM CDT
Nautical Twilight 3:40 AM CDT 10:36 PM CDT
Astronomical Twilight 2:23 AM CDT 11:54 PM CDT
Moon 10:18 PM CDT (6/14) 7:04 AM CDT (6/14)
Length of Visible Light 17h 08m
Length of Day
15h 49m
Waning Gibbous, 97% of the Moon is Illuminated
Jun 14
Waning Gibbous
Jun 19
Last Quarter
Jun 27
New
Jul 5
First Quarter
Jul 12
Full

Hourly Weather History & Observations

Time (CDT) Temp. Windchill Dew Point Humidity Pressure Visibility Wind Dir Wind Speed Gust Speed Precip Events Conditions
12:13 AM 48.2 °F - 42.8 °F 82% 29.97 in 10.0 mi ENE 4.6 mph - N/A   Clear
12:34 AM 50.0 °F - 44.6 °F 82% 29.98 in 10.0 mi NE 4.6 mph - N/A   Clear
12:53 AM 51.8 °F - 44.6 °F 76% 29.98 in 10.0 mi ENE 5.8 mph - N/A   Clear
1:13 AM 51.8 °F - 44.6 °F 76% 29.99 in 10.0 mi NE 9.2 mph - N/A   Clear
1:33 AM 46.4 °F 39.8 °F 42.8 °F 87% 30.00 in 10.0 mi NE 16.1 mph - N/A   Clear
1:54 AM 44.6 °F 36.9 °F 39.2 °F 81% 30.00 in 10.0 mi ENE 18.4 mph - N/A   Clear
2:13 AM 44.6 °F 36.4 °F 39.2 °F 81% 30.00 in 10.0 mi ENE 20.7 mph - N/A   Mostly Cloudy
2:33 AM 46.4 °F 39.5 °F 41.0 °F 81% 30.01 in 10.0 mi ENE 17.3 mph - N/A   Scattered Clouds
2:53 AM 44.6 °F 37.2 °F 39.2 °F 81% 30.01 in 10.0 mi East 17.3 mph - N/A   Mostly Cloudy
3:13 AM 46.4 °F 39.5 °F 41.0 °F 81% 30.02 in 10.0 mi East 17.3 mph - N/A   Overcast
3:34 AM 44.6 °F 36.9 °F 39.2 °F 81% 30.01 in 10.0 mi East 18.4 mph - N/A   Mostly Cloudy
3:53 AM 44.6 °F 37.2 °F 39.2 °F 81% 30.03 in 10.0 mi East 17.3 mph - N/A   Overcast
4:13 AM 44.6 °F 38.1 °F 39.2 °F 81% 30.04 in 10.0 mi East 13.8 mph - N/A   Overcast
4:34 AM 44.6 °F 38.4 °F 39.2 °F 81% 30.04 in 10.0 mi East 12.7 mph - N/A   Overcast
4:53 AM 44.6 °F 37.8 °F 39.2 °F 81% 30.04 in 10.0 mi ENE 15.0 mph - N/A   Overcast
5:14 AM 44.6 °F 37.4 °F 39.2 °F 81% 30.03 in 10.0 mi East 16.1 mph - N/A   Drizzle
5:33 AM 44.6 °F 37.8 °F 39.2 °F 81% 30.04 in 10.0 mi East 15.0 mph - N/A   Overcast
5:53 AM 44.6 °F 38.4 °F 41.0 °F 87% 30.05 in 10.0 mi ENE 12.7 mph - N/A   Light Drizzle
6:14 AM 44.6 °F 38.1 °F 41.0 °F 87% 30.05 in 10.0 mi East 13.8 mph - N/A   Overcast
6:33 AM 44.6 °F 36.6 °F 41.0 °F 87% 30.02 in 10.0 mi East 19.6 mph - N/A   Drizzle
6:53 AM 44.6 °F 37.8 °F 39.2 °F 81% 30.03 in 10.0 mi ENE 15.0 mph - N/A   Light Drizzle
7:13 AM 44.6 °F 37.2 °F 41.0 °F 87% 30.01 in 10.0 mi East 17.3 mph - N/A   Clear
7:33 AM 44.6 °F 36.9 °F 41.0 °F 87% 30.00 in 10.0 mi ENE 18.4 mph - N/A   Clear
7:54 AM 42.8 °F 35.8 °F 39.2 °F 87% 30.01 in 10.0 mi ENE 13.8 mph - N/A   Mostly Cloudy
8:13 AM 42.8 °F 35.1 °F 39.2 °F 87% 30.01 in 10.0 mi NE 16.1 mph - N/A   Overcast
8:33 AM 42.8 °F 35.1 °F 39.2 °F 87% 30.00 in 10.0 mi ENE 16.1 mph 20.7 mph N/A   Overcast
8:53 AM 42.8 °F 35.8 °F 39.2 °F 87% 30.02 in 10.0 mi ENE 13.8 mph - N/A   Scattered Clouds
9:13 AM 42.8 °F 35.1 °F 39.2 °F 87% 30.01 in 10.0 mi ENE 16.1 mph - N/A   Clear
9:34 AM 42.8 °F 34.5 °F 39.2 °F 87% 30.01 in 10.0 mi ENE 18.4 mph - N/A   Clear
9:53 AM 42.8 °F 34.8 °F 39.2 °F 87% 30.01 in 10.0 mi ENE 17.3 mph - N/A Rain Rain
10:13 AM 42.8 °F 35.1 °F 39.2 °F 87% 30.01 in 10.0 mi ENE 16.1 mph - N/A   Drizzle
10:33 AM 42.8 °F 33.8 °F 41.0 °F 93% 29.99 in 10.0 mi ENE 21.9 mph - N/A Rain Light Rain
10:54 AM 42.8 °F 33.5 °F 41.0 °F 93% 29.98 in 10.0 mi ENE 23.0 mph - N/A Rain Light Rain
11:13 AM 42.8 °F 33.1 °F 41.0 °F 93% 29.97 in 10.0 mi ENE 25.3 mph - N/A Rain Light Rain
11:33 AM 42.8 °F 32.7 °F 41.0 °F 93% 29.97 in 10.0 mi ENE 27.6 mph - N/A Rain Light Rain
11:54 AM 42.8 °F 34.3 °F 41.0 °F 93% 29.99 in 10.0 mi ENE 19.6 mph - N/A   Scattered Clouds
12:13 PM 42.8 °F 33.8 °F 41.0 °F 93% 29.99 in 10.0 mi ENE 21.9 mph - N/A   Scattered Clouds
12:34 PM 42.8 °F 33.5 °F 41.0 °F 93% 29.98 in 10.0 mi ENE 23.0 mph 26.5 mph N/A   Mostly Cloudy
12:53 PM 42.8 °F 33.8 °F 41.0 °F 93% 29.97 in 7.0 mi ENE 21.9 mph - N/A Rain Light Rain
1:14 PM 42.8 °F 33.5 °F 41.0 °F 93% 29.95 in 10.0 mi ENE 23.0 mph - N/A Rain Rain
1:33 PM 42.8 °F 32.9 °F 41.0 °F 93% 29.93 in 10.0 mi ENE 26.5 mph 33.4 mph N/A Rain Light Rain
1:53 PM 42.8 °F 33.8 °F 41.0 °F 93% 29.94 in 10.0 mi ENE 21.9 mph 29.9 mph N/A   Mostly Cloudy
2:14 PM 42.8 °F 34.3 °F 41.0 °F 93% 29.95 in 10.0 mi ENE 19.6 mph - N/A   Mostly Cloudy
2:33 PM 42.8 °F 34.5 °F 41.0 °F 93% 29.96 in 10.0 mi ENE 18.4 mph 27.6 mph N/A   Drizzle
2:53 PM 42.8 °F 34.0 °F 41.0 °F 93% 29.94 in 10.0 mi ENE 20.7 mph - N/A   Drizzle
3:13 PM 42.8 °F 34.5 °F 41.0 °F 93% 29.95 in 10.0 mi East 18.4 mph - N/A   Light Drizzle
3:34 PM 42.8 °F 34.5 °F 41.0 °F 93% 29.95 in 10.0 mi ENE 18.4 mph - N/A   Overcast
3:53 PM 42.8 °F 33.8 °F 41.0 °F 93% 29.93 in 10.0 mi ENE 21.9 mph 26.5 mph N/A Rain Light Rain
4:13 PM 42.8 °F 33.5 °F 41.0 °F 93% 29.91 in 10.0 mi ENE 23.0 mph - N/A Rain Light Rain
4:34 PM 42.8 °F 34.0 °F 41.0 °F 93% 29.92 in 10.0 mi NE 20.7 mph - N/A   Overcast
4:53 PM 42.8 °F 33.3 °F 42.8 °F 100% 29.90 in 10.0 mi NE 24.2 mph 29.9 mph N/A   Overcast
5:13 PM 42.8 °F 33.5 °F 42.8 °F 100% 29.91 in 10.0 mi ENE 23.0 mph - N/A   Overcast
5:34 PM 42.8 °F 33.5 °F 42.8 °F 100% 29.90 in 10.0 mi ENE 23.0 mph 27.6 mph N/A   Overcast
5:53 PM 42.8 °F 33.5 °F 42.8 °F 100% 29.90 in 10.0 mi ENE 23.0 mph 28.8 mph N/A   Overcast
6:14 PM 42.8 °F 33.5 °F 41.0 °F 93% 29.90 in 10.0 mi ENE 23.0 mph 27.6 mph N/A   Mostly Cloudy
6:33 PM 42.8 °F 34.0 °F 41.0 °F 93% 29.88 in 10.0 mi ENE 20.7 mph - N/A   Mostly Cloudy
6:54 PM 44.6 °F 36.6 °F 42.8 °F 93% 29.89 in 10.0 mi ENE 19.6 mph - N/A   Mostly Cloudy
7:13 PM 44.6 °F 36.6 °F 42.8 °F 93% 29.88 in 10.0 mi ENE 19.6 mph - N/A   Mostly Cloudy
7:34 PM 44.6 °F 36.9 °F 42.8 °F 93% 29.89 in 10.0 mi ENE 18.4 mph - N/A   Overcast
7:53 PM 44.6 °F 37.2 °F 42.8 °F 93% 29.90 in 10.0 mi ENE 17.3 mph - N/A   Overcast
8:14 PM 44.6 °F 37.2 °F 42.8 °F 93% 29.88 in 10.0 mi ENE 17.3 mph - N/A   Overcast
8:33 PM 44.6 °F 36.6 °F 41.0 °F 87% 29.86 in 10.0 mi ENE 19.6 mph - N/A   Mostly Cloudy
8:53 PM 44.6 °F 35.9 °F 41.0 °F 87% 29.85 in 10.0 mi ENE 23.0 mph - N/A   Mostly Cloudy
9:14 PM 44.6 °F 37.2 °F 41.0 °F 87% 29.87 in 10.0 mi ENE 17.3 mph - N/A   Overcast
9:33 PM 44.6 °F 38.1 °F 41.0 °F 87% 29.89 in 10.0 mi ENE 13.8 mph - N/A   Overcast
9:53 PM 44.6 °F 39.2 °F 41.0 °F 87% 29.92 in 10.0 mi NE 10.4 mph - N/A   Drizzle
10:13 PM 44.6 °F 37.4 °F 42.8 °F 93% 29.95 in 10.0 mi NE 16.1 mph - N/A Rain , Thunderstorm Light Thunderstorms and Rain
10:33 PM 44.6 °F 37.2 °F 42.8 °F 93% 29.93 in 10.0 mi ENE 17.3 mph - N/A Rain , Thunderstorm Rain
10:54 PM 42.8 °F 35.8 °F 41.0 °F 93% 29.91 in 5.0 mi East 13.8 mph - N/A Rain Rain
11:13 PM 42.8 °F 34.5 °F 41.0 °F 93% 29.88 in 5.0 mi East 18.4 mph 24.2 mph N/A Rain Light Rain
11:33 PM 42.8 °F 33.8 °F 41.0 °F 93% 29.81 in 10.0 mi ESE 21.9 mph 27.6 mph N/A Rain Light Rain
11:53 PM 44.6 °F 36.6 °F 42.8 °F 93% 29.77 in 10.0 mi East 19.6 mph - N/A   Drizzle